Weather in Nizhniy Ol'shanets

Russia / Belgorod Oblast     50°29′28″N   36°41′03″E
temp.,
°C
wind,
m/s
gust,
m/s
humid.,
%
clouds,
%
prec.,
mm/h
press.,
hPa
HPBL,
m
11 may, tue
tue1100:00+9nne91883100 0.3 1016691
03:00+9nne8178696 0.3 1016531
06:00+10nne91885100 0.0 1015579
09:00+12ne81483100 0.0 10151064
12:00+10ene71079100 0.3 10181096
15:00+13ene9115716 0.3 10181661
18:00+11ene814695 0.0 10181636
21:00+8ene8137890 0.1 10191033
12 may, wed
wed1200:00+8e91486100 0.3 10191031
03:00+8e81484100 0.3 10201012
06:00+8ene81584100 0.0 1020898
09:00+9e81589100 0.6 10201437
12:00+11ese71383100 1.3 10171616
15:00+9e499066 4.7 1017717
18:00+11ese598173 1.1 1015718
21:00+10se71389100 2.6 1015575
13 may, thu
thu1300:00+8se5119497 0.6 1015341
03:00+7se389623 0.6 1016191
06:00+8se259796 0.0 1016194
09:00+12se358660 0.0 1015494
12:00+15sse357724 0.1 1015749
15:00+17s466462 0.3 10151343
18:00+18sse356825 0.1 1014725
21:00+13e3482100 0.1 101553
14 may, fri
fri1400:00+14e3982100 0.0 1014195
03:00+12ese489190 0.0 1014139
06:00+13ese4119075 0.0 1013236
09:00+19se61178100 0.0 1012570
12:00+23se71063100 0.0 10111214
15:00+22ese3473100 0.2 101193
18:00+21e51079100 1.6 1010478
21:00+19ese4108696 1.8 1009154
15 may, sat
sat1500:00+17s359396 1.3 100982
03:00+14wsw2291100 2.1 100912
06:00+14sw228766 0.0 101044
09:00+19sw347685 0.0 1011544
12:00+21sw566415 0.1 10121460
15:00+22wsw565558 0.1 10121730
18:00+20wsw3667100 0.1 1012306
21:00+15w117993 0.1 101311